Regional Weather Roundup
Issued by NWS

Home | Current Version | Previous Version | Graphics & Text | Print | Product List | Glossary On
Versions: 1 2 3 4 5 6 7 8 9 10 11 12 13 14 15 16 17 18 19 20 21 22 23 24 25 26 27 28 29 30 31 32 33 34 35 36 37 38 39 40 41 42 43 44 45 46 47 48 49 50
000
ASUS43 KOAX 031810
RWRNE

WEATHER ROUNDUP FOR NEBRASKA
NATIONAL WEATHER SERVICE OMAHA NE
100 PM CDT FRI JUL 03 2015

NOTES: SATELLITE DATA IS BEING USED TO AUGMENT CLOUD COVER ABOVE
       12000 FEET.
       "FAIR" INDICATES FEW OR NO CLOUDS BELOW 12,000 FEET WITH NO
       SIGNIFICANT WEATHER AND/OR OBSTRUCTIONS TO VISIBILITY.

  * THESE STATIONS DO NOT REPORT WEATHER SUCH AS RAIN...SNOW OR FOG.

NEZ001>004-019>022-054>056-031900-
NEBRASKA PANHANDLE

CITY           SKY/WX    TMP DP  RH WIND       PRES   REMARKS
SCOTTSBLUFF    SUNNY     81  54  39 MISG      30.11S
6HR MIN TEMP:  62; 6HR MAX TEMP:  81;

ALLIANCE       PTSUNNY   76  56  49 VRB5      30.11S
6HR MIN TEMP:  58; 6HR MAX TEMP:  77;

CHADRON        SUNNY     79  55  43 CALM      30.07F
6HR MIN TEMP:  57; 6HR MAX TEMP:  80;

KIMBALL          N/A    N/A N/A N/A MISG        N/A
SIDNEY         PTSUNNY   77  56  48 CALM      30.14S
6HR MIN TEMP:  59; 6HR MAX TEMP:  81;

$$

NEZ057>060-069>072-079>082-031900-
SOUTHWEST NEBRASKA

CITY           SKY/WX    TMP DP  RH WIND       PRES   REMARKS
NORTH PLATTE   MOSUNNY   79  59  50 S5        30.06F
6HR MIN TEMP:  56; 6HR MAX TEMP:  79;

IMPERIAL       MOSUNNY   81  55  40 VRB3      30.09S
6HR MIN TEMP:  63; 6HR MAX TEMP:  82;

LEXINGTON      PTSUNNY   74  64  69 N3        30.07F
MCCOOK         MOSUNNY   80  62  54 E9        30.06S
6HR MIN TEMP:  60; 6HR MAX TEMP:  80;

OGALLALA       SUNNY     80  57  46 CALM      30.09S
$$

NEZ005>010-023>029-035>040-094-031900-
NORTH CENTRAL NEBRASKA

CITY           SKY/WX    TMP DP  RH WIND       PRES   REMARKS
VALENTINE      SUNNY     78  61  55 E8        30.05F
6HR MIN TEMP:  57; 6HR MAX TEMP:  80;

AINSWORTH      MOSUNNY   77  60  56 CALM      30.06F
BROKEN BOW     PTSUNNY   79  62  56 NE5       30.06S
6HR MIN TEMP:  64; 6HR MAX TEMP:  81;

O`NEILL        PTSUNNY   73  63  68 E3        30.05S
ORD            MOSUNNY   77  61  57 VRB5      30.03F
6HR MIN TEMP:  60; 6HR MAX TEMP:  77;

THEDFORD       MOSUNNY   78  61  56 CALM      30.08F
$$

NEZ041-046>049-061>064-073>077-083>087-031900-
SOUTH CENTRAL NEBRASKA

CITY           SKY/WX    TMP DP  RH WIND       PRES   REMARKS
GRAND ISLAND   CLOUDY    72  61  68 VRB5      30.06S
6HR MIN TEMP:  64; 6HR MAX TEMP:  72;

AURORA         CLOUDY    71  64  81 NE5       30.05S
HASTINGS       CLOUDY    74  61  63 N6        30.05F
6HR MIN TEMP:  66; 6HR MAX TEMP:  75;

HEBRON         CLOUDY    72  62  69 N5        30.04S
HOLDREGE       CLOUDY    72  61  68 CALM      30.07S
KEARNEY *      CLOUDY    72  59  64 NE6       30.06F
YORK           CLOUDY    72  64  78 N6        30.05S
$$

NEZ011>018-030>034-042>045-031900-
NORTHEAST NEBRASKA

CITY           SKY/WX    TMP DP  RH WIND       PRES   REMARKS
NORFOLK        CLOUDY    71  63  75 VRB3      30.05R
6HR MIN TEMP:  64; 6HR MAX TEMP:  71;

ALBION         CLOUDY    71  60  70 SE3       30.05F
BLAIR          SUNNY     71  52  49 CALM      30.03F
COLUMBUS *     CLOUDY    70  59  68 CALM      30.06S
FREMONT        SUNNY     74  58  57 CALM      30.04S
TEKAMAH        SUNNY     76  54  46 VRB5      30.02S
6HR MIN TEMP:  57; 6HR MAX TEMP:  76;

WAYNE          MOSUNNY   74  62  66 CALM      30.03F
$$

NEZ050>053-065>068-078-088>093-031900-
SOUTHEAST NEBRASKA

CITY           SKY/WX    TMP DP  RH WIND       PRES   REMARKS
LINCOLN        MOSUNNY   77  61  57 N8        30.03F
6HR MIN TEMP:  64; 6HR MAX TEMP:  77;

OMAHA EPPLEY   PTSUNNY   74  57  55 NW5       30.02F
6HR MIN TEMP:  58; 6HR MAX TEMP:  74;

BEATRICE       SUNNY     76  60  57 NE7       30.02S
FALLS CITY     SUNNY     76  58  53 NE10      30.00S
6HR MIN TEMP:  64; 6HR MAX TEMP:  76;

NEBRASKA CITY  SUNNY     73  49  42 E3        30.02S
PLATTSMOUTH    SUNNY     73  53  49 N3        30.02F
$$

NEZ044-045-051>053-067-031900-
OMAHA AREA

CITY           SKY/WX    TMP DP  RH WIND       PRES   REMARKS
OMAHA EPPLEY   PTSUNNY   74  57  55 NW5       30.02F
6HR MIN TEMP:  58; 6HR MAX TEMP:  74;

BLAIR          SUNNY     71  52  49 CALM      30.03F
FREMONT        SUNNY     74  58  57 CALM      30.04S
MILLARD        SUNNY     74  54  49 N3        30.02F
OFFUTT AFB     MOSUNNY   74  55  52 VRB3      30.01F
PLATTSMOUTH    SUNNY     73  53  49 N3        30.02F
WAHOO          MOCLDY    73  60  63 N5        30.03F
$$



USA.gov is the U.S. government's official web portal to all federal, state and local government web resources and services.